contact:dominique.lefevre@mio.osupytheas.fr, maurice.libes@osupytheas.fr, didier.mallarino@osupytheas.fr
Project:EMSO http://www.emso-fr.org/EMSO-France
Depth: 2436.0 m
Title:EMSO Ligure Ouest : Data MII capteur AQUADOPP
Date,Latitude,Longitude,X_East,Y_North,Z_Up,Amplitude_X,Amplitude_Y,Amplitude_Z,Batterie,SoundSpeed,Heading,Pitch,Roll,Pressure,TIS,Speed,Direction
, degrees North, degrees East, m.s-1, m.s-1,m.s-1, 1, 1, 1, Volt, m.s-1, degree, degree, degree, dbar, degree_C, m.s-1, degree
2021-08-16T00:04:03,42.805,6.029,0.03,-0.047,-0.012,104.0,106.0,102.0,13.4,1505.2,329.6,-0.7,1.9,2470.578,13.28,0.055,147.4
2021-08-16T00:07:03,42.805,6.029,0.026,-0.042,-0.002,105.0,105.0,103.0,13.4,1505.2,328.6,-0.8,1.8,2470.541,13.28,0.049,148.2
2021-08-16T00:10:03,42.805,6.029,0.028,-0.04,0.002,105.0,105.0,102.0,13.4,1505.2,325.7,-0.8,1.8,2470.543,13.28,0.048,145.0
2021-08-16T00:13:03,42.805,6.029,0.018,-0.038,-0.005,104.0,105.0,102.0,13.4,1505.2,325.1,-0.7,1.8,2470.501,13.28,0.042,154.7
2021-08-16T00:16:03,42.805,6.029,0.043,-0.046,-0.002,104.0,104.0,102.0,13.4,1505.2,325.0,-0.8,1.9,2470.513,13.28,0.062,136.9
2021-08-16T00:19:03,42.805,6.029,0.028,-0.044,-0.007,105.0,105.0,103.0,13.3,1505.2,327.3,-0.8,1.8,2470.551,13.28,0.052,147.5
2021-08-16T00:22:03,42.805,6.029,0.031,-0.038,-0.033,106.0,105.0,102.0,13.3,1505.2,328.6,-0.7,1.8,2470.5,13.28,0.049,140.8
2021-08-16T00:25:03,42.805,6.029,0.029,-0.039,-0.003,105.0,104.0,102.0,13.4,1505.2,327.6,-0.8,1.8,2470.515,13.28,0.048,143.4
2021-08-16T00:28:03,42.805,6.029,0.004,-0.051,-0.019,105.0,105.0,103.0,13.4,1505.2,329.6,-0.8,1.9,2470.541,13.28,0.051,175.5
2021-08-16T00:31:03,42.805,6.029,0.024,-0.031,-0.002,104.0,105.0,103.0,13.4,1505.2,324.9,-0.7,1.8,2470.558,13.28,0.039,142.3
2021-08-16T00:34:03,42.805,6.029,0.015,-0.028,-0.006,104.0,105.0,102.0,13.4,1505.2,327.0,-0.7,1.8,2470.561,13.28,0.031,151.8
2021-08-16T00:37:03,42.805,6.029,0.047,-0.047,-0.037,104.0,104.0,103.0,13.4,1505.2,330.5,-0.7,1.8,2470.544,13.28,0.066,135.0
2021-08-16T00:40:03,42.805,6.029,0.008,-0.038,-0.006,104.0,104.0,103.0,13.4,1505.2,325.7,-0.8,1.8,2470.557,13.28,0.038,168.1
2021-08-16T00:43:03,42.805,6.029,0.035,-0.032,0.018,104.0,105.0,102.0,13.3,1505.2,329.7,-0.8,1.8,2470.564,13.28,0.047,132.4
2021-08-16T00:46:03,42.805,6.029,0.048,-0.019,-0.015,105.0,103.0,103.0,13.4,1505.2,330.8,-0.7,1.8,2470.552,13.28,0.051,111.6
2021-08-16T00:49:03,42.805,6.029,0.031,-0.04,-0.015,104.0,104.0,102.0,13.4,1505.2,325.0,-0.7,1.8,2470.531,13.28,0.05,142.2
2021-08-16T00:52:03,42.805,6.029,0.014,-0.041,0.006,104.0,104.0,103.0,13.4,1505.2,328.3,-0.7,1.8,2470.52,13.28,0.043,161.1
2021-08-16T00:55:03,42.805,6.029,0.043,-0.038,-0.026,105.0,103.0,103.0,13.4,1505.2,327.9,-0.7,1.8,2470.506,13.28,0.057,131.5
2021-08-16T00:58:03,42.805,6.029,0.04,-0.033,-0.003,106.0,105.0,103.0,13.4,1505.2,328.6,-0.7,1.8,2470.537,13.28,0.051,129.5
2021-08-16T01:04:03,42.805,6.029,0.026,-0.019,-0.007,106.0,106.0,103.0,13.4,1505.2,327.4,-0.8,1.8,2470.556,13.28,0.032,126.2
2021-08-16T01:07:03,42.805,6.029,0.015,-0.025,-0.005,106.0,102.0,104.0,13.4,1505.2,329.6,-0.7,1.9,2470.496,13.28,0.029,149.0
2021-08-16T01:10:03,42.805,6.029,0.024,-0.039,-0.006,104.0,104.0,102.0,13.4,1505.2,326.2,-0.7,1.8,2470.511,13.28,0.045,148.4
2021-08-16T01:13:03,42.805,6.029,0.033,-0.042,-0.028,104.0,103.0,102.0,13.3,1505.2,325.7,-0.8,1.8,2470.548,13.28,0.053,141.8
2021-08-16T01:16:03,42.805,6.029,0.031,-0.045,0.006,104.0,105.0,101.0,13.4,1505.2,326.3,-0.7,1.9,2470.505,13.28,0.054,145.4
2021-08-16T01:19:03,42.805,6.029,0.019,-0.036,-0.01,104.0,103.0,102.0,13.3,1505.2,329.0,-0.7,1.8,2470.482,13.28,0.04,152.2
2021-08-16T01:22:03,42.805,6.029,0.043,-0.023,-0.027,104.0,103.0,102.0,13.4,1505.2,328.4,-0.8,1.8,2470.52,13.28,0.048,118.1
2021-08-16T01:25:03,42.805,6.029,0.03,-0.034,-0.004,104.0,104.0,100.0,13.3,1505.2,327.9,-0.8,1.8,2470.514,13.28,0.045,138.6
2021-08-16T01:28:03,42.805,6.029,0.031,-0.03,0.024,104.0,103.0,102.0,13.3,1505.2,326.4,-0.8,1.8,2470.493,13.28,0.043,134.1
2021-08-16T01:31:03,42.805,6.029,0.012,-0.02,-0.003,104.0,104.0,101.0,13.4,1505.2,330.3,-0.8,1.8,2470.542,13.28,0.023,149.0
2021-08-16T01:34:03,42.805,6.029,0.004,-0.031,-0.03,103.0,104.0,101.0,13.4,1505.2,329.6,-0.7,1.8,2470.528,13.28,0.031,172.7
2021-08-16T01:37:03,42.805,6.029,0.024,-0.034,-0.021,104.0,104.0,101.0,13.3,1505.2,325.0,-0.7,1.8,2470.518,13.28,0.041,144.8
2021-08-16T01:40:03,42.805,6.029,0.013,-0.011,0.013,104.0,103.0,101.0,13.3,1505.2,328.5,-0.7,1.8,2470.51,13.28,0.017,130.2
2021-08-16T01:43:03,42.805,6.029,0.011,-0.049,-0.015,105.0,103.0,101.0,13.3,1505.2,326.7,-0.7,1.8,2470.537,13.28,0.05,167.3
2021-08-16T01:46:03,42.805,6.029,0.035,-0.046,-0.024,104.0,103.0,102.0,13.4,1505.2,327.0,-0.8,1.9,2470.528,13.28,0.057,142.7
2021-08-16T01:49:03,42.805,6.029,0.027,-0.025,-0.002,103.0,105.0,101.0,13.3,1505.2,326.8,-0.7,1.8,2470.559,13.28,0.036,132.8
2021-08-16T01:52:03,42.805,6.029,0.022,-0.015,0.012,104.0,105.0,102.0,13.4,1505.2,328.9,-0.7,1.8,2470.509,13.28,0.026,124.3
2021-08-16T01:55:03,42.805,6.029,0.042,-0.012,-0.01,105.0,103.0,102.0,13.4,1505.2,328.9,-0.8,1.8,2470.536,13.28,0.043,105.9
2021-08-16T01:58:03,42.805,6.029,0.039,-0.042,0.009,103.0,103.0,102.0,13.4,1505.2,325.7,-0.8,1.8,2470.484,13.28,0.057,137.1
2021-08-16T02:04:03,42.805,6.029,0.024,-0.021,0.004,104.0,104.0,103.0,13.3,1505.2,330.2,-0.8,1.8,2470.494,13.28,0.031,131.2
2021-08-16T02:07:03,42.805,6.029,0.028,-0.038,-0.035,106.0,101.0,102.0,13.3,1505.2,328.7,-0.8,1.8,2470.508,13.28,0.047,143.6
2021-08-16T02:10:03,42.805,6.029,0.02,-0.02,0.008,104.0,105.0,102.0,13.4,1505.2,328.1,-0.7,1.9,2470.535,13.28,0.028,135.0
2021-08-16T02:13:03,42.805,6.029,0.012,-0.039,-0.028,105.0,103.0,102.0,13.4,1505.2,326.9,-0.8,1.9,2470.511,13.28,0.04,162.9
2021-08-16T02:16:03,42.805,6.029,0.019,-0.02,-0.013,104.0,103.0,102.0,13.4,1505.2,331.1,-0.7,1.8,2470.51,13.28,0.027,136.5
2021-08-16T02:19:03,42.805,6.029,0.03,-0.015,-0.006,103.0,103.0,103.0,13.4,1505.2,326.1,-0.8,1.8,2470.501,13.28,0.033,116.6
2021-08-16T02:22:03,42.805,6.029,0.028,-0.024,0.005,103.0,105.0,102.0,13.3,1505.2,325.7,-0.8,1.8,2470.53,13.28,0.036,130.6
2021-08-16T02:25:03,42.805,6.029,0.032,-0.023,-0.014,103.0,103.0,103.0,13.4,1505.2,328.6,-0.8,1.8,2470.575,13.28,0.039,125.7
2021-08-16T02:28:03,42.805,6.029,0.032,-0.045,-0.016,102.0,104.0,103.0,13.4,1505.2,328.1,-0.7,1.8,2470.528,13.28,0.055,144.6
2021-08-16T02:31:03,42.805,6.029,0.028,-0.034,0.012,105.0,103.0,101.0,13.4,1505.2,329.0,-0.8,1.8,2470.498,13.28,0.044,140.5
2021-08-16T02:34:03,42.805,6.029,0.018,-0.01,0.006,102.0,105.0,102.0,13.3,1505.2,328.3,-0.7,1.8,2470.506,13.28,0.02,119.1
2021-08-16T02:37:03,42.805,6.029,0.032,-0.026,-0.026,104.0,104.0,103.0,13.4,1505.2,328.7,-0.7,1.8,2470.536,13.28,0.041,129.1
2021-08-16T02:40:03,42.805,6.029,0.017,-0.051,-0.02,103.0,103.0,102.0,13.4,1505.2,326.0,-0.7,1.8,2470.5,13.28,0.053,161.6
2021-08-16T02:43:03,42.805,6.029,0.03,-0.055,-0.01,104.0,104.0,103.0,13.4,1505.2,330.7,-0.7,1.8,2470.514,13.28,0.062,151.4
2021-08-16T02:46:03,42.805,6.029,0.04,-0.034,-0.007,103.0,103.0,102.0,13.4,1505.2,327.0,-0.7,1.8,2470.5,13.28,0.052,130.4
2021-08-16T02:49:03,42.805,6.029,0.032,-0.024,0.022,103.0,103.0,103.0,13.4,1505.2,325.4,-0.7,1.8,2470.491,13.28,0.04,126.9
2021-08-16T02:52:03,42.805,6.029,0.023,-0.046,-0.023,103.0,104.0,102.0,13.3,1505.2,328.9,-0.8,1.8,2470.501,13.28,0.051,153.4
2021-08-16T02:55:03,42.805,6.029,0.021,-0.023,0.012,103.0,105.0,103.0,13.4,1505.2,327.7,-0.8,1.8,2470.511,13.28,0.031,137.6
2021-08-16T02:58:03,42.805,6.029,0.019,-0.039,0.021,104.0,104.0,103.0,13.3,1505.2,327.4,-0.8,1.9,2470.494,13.28,0.043,154.0
2021-08-16T03:04:03,42.805,6.029,0.024,-0.003,0.012,104.0,104.0,102.0,13.4,1505.2,325.1,-0.7,1.8,2470.497,13.28,0.024,97.1
2021-08-16T03:07:03,42.805,6.029,0.032,-0.031,-0.002,105.0,104.0,102.0,13.3,1505.2,330.5,-0.7,1.8,2470.528,13.28,0.044,134.1
2021-08-16T03:10:03,42.805,6.029,0.029,-0.024,0.009,103.0,104.0,102.0,13.3,1505.2,326.3,-0.8,1.8,2470.501,13.28,0.037,129.6
2021-08-16T03:13:03,42.805,6.029,0.029,-0.034,-0.011,105.0,104.0,102.0,13.3,1505.2,327.4,-0.7,1.8,2470.46,13.28,0.044,139.5
2021-08-16T03:16:03,42.805,6.029,0.011,-0.052,0.011,105.0,104.0,102.0,13.4,1505.2,330.2,-0.8,1.9,2470.473,13.28,0.053,168.1
2021-08-16T03:19:03,42.805,6.029,0.027,-0.043,-0.008,104.0,104.0,102.0,13.4,1505.2,326.8,-0.8,1.9,2470.496,13.28,0.05,147.9
2021-08-16T03:22:03,42.805,6.029,0.023,-0.036,0.005,105.0,104.0,103.0,13.4,1505.2,329.2,-0.8,1.8,2470.495,13.28,0.042,147.4
2021-08-16T03:25:03,42.805,6.029,0.027,-0.018,-0.025,104.0,104.0,102.0,13.4,1505.2,326.7,-0.8,1.8,2470.48,13.28,0.032,123.7
2021-08-16T03:28:03,42.805,6.029,0.044,-0.032,-0.012,105.0,104.0,103.0,13.4,1505.2,328.2,-0.8,1.8,2470.477,13.28,0.054,126.0
2021-08-16T03:31:03,42.805,6.029,0.031,-0.042,-0.037,105.0,103.0,102.0,13.3,1505.2,327.6,-0.8,1.8,2470.499,13.28,0.052,143.6
2021-08-16T03:34:03,42.805,6.029,0.034,-0.033,-0.01,104.0,104.0,103.0,13.4,1505.2,325.6,-0.8,1.8,2470.479,13.28,0.047,134.1
2021-08-16T03:37:03,42.805,6.029,0.037,-0.035,0.026,105.0,104.0,103.0,13.4,1505.2,330.1,-0.8,1.8,2470.452,13.28,0.05,133.4
2021-08-16T03:40:03,42.805,6.029,0.026,-0.035,-0.008,104.0,104.0,102.0,13.3,1505.2,329.1,-0.8,1.8,2470.472,13.28,0.043,143.4
2021-08-16T03:43:03,42.805,6.029,0.032,-0.05,-0.021,104.0,105.0,103.0,13.4,1505.2,324.9,-0.8,1.8,2470.509,13.28,0.059,147.4
2021-08-16T03:46:03,42.805,6.029,0.017,-0.043,-0.008,106.0,105.0,102.0,13.4,1505.2,328.2,-0.7,1.8,2470.498,13.28,0.046,158.4
2021-08-16T03:49:03,42.805,6.029,0.025,-0.015,0.002,104.0,104.0,103.0,13.4,1505.2,328.8,-0.8,1.8,2470.47,13.28,0.029,121.0
2021-08-16T03:52:03,42.805,6.029,0.013,-0.036,-0.007,104.0,105.0,103.0,13.4,1505.2,329.9,-0.8,1.8,2470.482,13.28,0.038,160.1
2021-08-16T03:55:03,42.805,6.029,0.033,-0.026,0.007,105.0,104.0,102.0,13.4,1505.2,330.2,-0.7,1.8,2470.474,13.28,0.042,128.2
2021-08-16T03:58:03,42.805,6.029,0.02,-0.035,-0.012,106.0,105.0,102.0,13.4,1505.2,329.7,-0.8,1.8,2470.478,13.28,0.04,150.3
2021-08-16T04:04:03,42.805,6.029,0.035,-0.031,0.0,104.0,103.0,103.0,13.4,1505.2,327.1,-0.8,1.8,2470.52,13.28,0.046,131.5
2021-08-16T04:07:03,42.805,6.029,0.008,-0.012,0.008,105.0,104.0,103.0,13.4,1505.2,329.4,-0.7,1.8,2470.525,13.28,0.014,146.3
2021-08-16T04:10:03,42.805,6.029,0.022,-0.011,0.004,104.0,104.0,102.0,13.4,1505.2,330.8,-0.8,1.8,2470.502,13.28,0.024,116.6
2021-08-16T04:13:03,42.805,6.029,0.025,-0.018,-0.019,106.0,104.0,102.0,13.4,1505.2,326.8,-0.7,1.8,2470.52,13.28,0.03,125.8
2021-08-16T04:16:03,42.805,6.029,0.053,-0.039,0.021,104.0,105.0,102.0,13.4,1505.2,325.7,-0.8,1.8,2470.534,13.28,0.065,126.3
2021-08-16T04:19:03,42.805,6.029,0.028,-0.042,0.022,105.0,104.0,103.0,13.4,1505.2,326.8,-0.7,1.8,2470.5,13.28,0.05,146.3
2021-08-16T04:22:03,42.805,6.029,0.037,-0.019,0.006,105.0,106.0,101.0,13.4,1505.2,329.0,-0.7,1.8,2470.498,13.28,0.041,117.2
2021-08-16T04:25:03,42.805,6.029,0.043,-0.013,0.01,106.0,104.0,101.0,13.4,1505.2,328.6,-0.8,1.8,2470.483,13.28,0.044,106.8
2021-08-16T04:28:03,42.805,6.029,0.017,-0.001,0.009,105.0,104.0,103.0,13.4,1505.2,326.5,-0.7,1.8,2470.486,13.28,0.017,93.4
2021-08-16T04:31:03,42.805,6.029,0.013,-0.023,-0.018,104.0,104.0,103.0,13.3,1505.2,325.2,-0.8,1.8,2470.516,13.28,0.026,150.5
2021-08-16T04:34:03,42.805,6.029,0.029,-0.03,-0.012,105.0,105.0,102.0,13.4,1505.2,328.1,-0.8,1.8,2470.485,13.28,0.041,136.0
2021-08-16T04:37:03,42.805,6.029,0.036,-0.043,-0.032,105.0,104.0,103.0,13.3,1505.2,330.8,-0.7,1.8,2470.472,13.28,0.056,140.1
2021-08-16T04:40:03,42.805,6.029,0.033,-0.032,0.003,104.0,104.0,103.0,13.4,1505.2,326.6,-0.8,1.8,2470.515,13.28,0.045,134.1
2021-08-16T04:43:03,42.805,6.029,0.041,-0.022,-0.02,104.0,104.0,102.0,13.4,1505.2,327.2,-0.7,1.8,2470.5,13.28,0.046,118.2
2021-08-16T04:46:03,42.805,6.029,0.046,-0.03,-0.021,105.0,104.0,101.0,13.3,1505.2,326.6,-0.8,1.8,2470.497,13.28,0.054,123.1
2021-08-16T04:49:03,42.805,6.029,0.029,-0.036,-0.004,104.0,104.0,102.0,13.4,1505.2,328.1,-0.8,1.8,2470.494,13.28,0.046,141.1
2021-08-16T04:52:03,42.805,6.029,0.037,-0.041,0.003,104.0,104.0,102.0,13.4,1505.2,328.3,-0.8,1.9,2470.49,13.28,0.055,137.9
2021-08-16T04:55:03,42.805,6.029,0.041,-0.023,-0.007,104.0,103.0,103.0,13.4,1505.2,327.1,-0.8,1.8,2470.455,13.28,0.047,119.3
2021-08-16T04:58:03,42.805,6.029,0.032,-0.032,-0.023,105.0,103.0,102.0,13.4,1505.2,325.0,-0.7,1.8,2470.511,13.28,0.045,135.0
2021-08-16T05:04:03,42.805,6.029,0.027,-0.032,-0.002,104.0,103.0,104.0,13.4,1505.2,330.3,-0.7,1.8,2470.464,13.28,0.041,139.8
2021-08-16T05:07:03,42.805,6.029,0.016,-0.046,-0.014,105.0,104.0,103.0,13.3,1505.2,329.9,-0.8,1.8,2470.514,13.28,0.048,160.8
2021-08-16T05:10:03,42.805,6.029,0.037,-0.025,-0.015,103.0,104.0,102.0,13.4,1505.2,327.5,-0.8,1.8,2470.453,13.28,0.044,124.0
2021-08-16T05:13:03,42.805,6.029,0.05,-0.033,-0.01,104.0,104.0,102.0,13.3,1505.2,328.8,-0.7,1.8,2470.448,13.28,0.059,123.4
2021-08-16T05:16:03,42.805,6.029,0.028,-0.021,0.0,103.0,104.0,103.0,13.4,1505.2,325.5,-0.8,1.9,2470.494,13.28,0.035,126.9
2021-08-16T05:19:03,42.805,6.029,0.037,-0.026,-0.006,104.0,104.0,102.0,13.4,1505.2,326.9,-0.8,1.9,2470.458,13.28,0.045,125.1
2021-08-16T05:22:03,42.805,6.029,0.021,-0.043,0.008,104.0,106.0,102.0,13.3,1505.2,328.0,-0.7,1.8,2470.475,13.28,0.047,154.0
2021-08-16T05:25:03,42.805,6.029,0.035,-0.028,0.006,104.0,104.0,102.0,13.3,1505.2,327.4,-0.8,1.8,2470.473,13.28,0.044,128.7
2021-08-16T05:28:03,42.805,6.029,0.022,-0.032,-0.019,104.0,104.0,102.0,13.4,1505.2,325.4,-0.8,1.8,2470.436,13.28,0.038,145.5
2021-08-16T05:31:03,42.805,6.029,0.021,-0.04,-0.01,105.0,104.0,102.0,13.4,1505.2,330.4,-0.8,1.8,2470.501,13.28,0.045,152.3
2021-08-16T05:34:03,42.805,6.029,0.038,-0.056,-0.004,105.0,104.0,103.0,13.4,1505.2,327.8,-0.7,1.8,2470.476,13.28,0.067,145.8
2021-08-16T05:37:03,42.805,6.029,0.027,0.0,0.004,105.0,103.0,102.0,13.4,1505.2,325.0,-0.7,1.8,2470.461,13.28,0.026,90.0
2021-08-16T05:40:03,42.805,6.029,0.032,-0.026,0.008,105.0,104.0,102.0,13.3,1505.2,330.3,-0.8,1.8,2470.451,13.28,0.041,129.1
2021-08-16T06:04:03,42.805,6.029,0.028,-0.035,0.001,104.0,104.0,102.0,13.4,1505.1,326.6,-0.7,1.8,2470.653,13.27,0.044,141.3
2021-08-16T06:07:03,42.805,6.029,0.048,-0.028,0.01,104.0,104.0,102.0,13.4,1505.2,326.1,-0.7,1.8,2470.59,13.28,0.055,120.3
2021-08-16T06:10:03,42.805,6.029,0.021,-0.032,-0.007,105.0,104.0,102.0,13.4,1505.2,328.8,-0.7,1.8,2470.58,13.28,0.038,146.7
2021-08-16T06:13:03,42.805,6.029,0.024,-0.018,0.025,104.0,103.0,102.0,13.4,1505.2,328.8,-0.8,1.8,2470.519,13.28,0.03,126.9
2021-08-16T06:16:03,42.805,6.029,0.018,-0.034,0.0,105.0,104.0,103.0,13.4,1505.2,327.0,-0.7,1.8,2470.511,13.28,0.038,152.1
2021-08-16T06:19:03,42.805,6.029,0.019,-0.03,0.0,106.0,104.0,101.0,13.4,1505.2,329.3,-0.8,1.8,2470.51,13.28,0.035,147.7
2021-08-16T06:22:03,42.805,6.029,0.034,-0.015,0.0,104.0,104.0,102.0,13.4,1505.2,326.1,-0.8,1.8,2470.501,13.28,0.037,113.8
2021-08-16T06:25:03,42.805,6.029,0.047,-0.03,0.003,105.0,104.0,102.0,13.4,1505.2,325.4,-0.7,1.8,2470.499,13.28,0.055,122.6
2021-08-16T06:28:03,42.805,6.029,0.014,-0.019,0.0,104.0,104.0,102.0,13.3,1505.2,327.7,-0.8,1.8,2470.505,13.28,0.023,143.6
2021-08-16T06:31:03,42.805,6.029,0.028,-0.037,0.0,104.0,105.0,101.0,13.4,1505.2,328.5,-0.7,1.8,2470.5,13.28,0.046,142.9
2021-08-16T06:34:03,42.805,6.029,0.031,-0.025,-0.005,106.0,104.0,101.0,13.4,1505.2,326.3,-0.7,1.9,2470.469,13.28,0.039,128.9
2021-08-16T06:37:03,42.805,6.029,0.023,-0.024,0.008,104.0,104.0,102.0,13.4,1505.2,326.4,-0.7,1.8,2470.408,13.28,0.033,136.2
2021-08-16T06:40:03,42.805,6.029,0.016,-0.018,0.001,104.0,104.0,103.0,13.4,1505.2,327.0,-0.8,1.9,2470.447,13.28,0.024,138.4
2021-08-16T06:43:03,42.805,6.029,0.013,-0.014,0.004,104.0,104.0,102.0,13.4,1505.2,326.6,-0.7,1.8,2470.415,13.28,0.019,137.1
2021-08-16T06:46:03,42.805,6.029,0.04,-0.02,0.035,105.0,104.0,102.0,13.4,1505.2,326.6,-0.7,1.8,2470.464,13.28,0.044,116.6
2021-08-16T06:49:03,42.805,6.029,0.034,-0.029,0.0,103.0,104.0,103.0,13.3,1505.2,328.2,-0.7,1.8,2470.43,13.28,0.044,130.5
2021-08-16T06:52:03,42.805,6.029,0.04,-0.023,-0.004,104.0,104.0,102.0,13.4,1505.2,328.9,-0.8,1.8,2470.398,13.28,0.046,119.9
2021-08-16T06:55:03,42.805,6.029,0.032,-0.025,0.019,106.0,104.0,102.0,13.4,1505.2,327.8,-0.7,1.8,2470.411,13.28,0.04,128.0
2021-08-16T06:58:03,42.805,6.029,0.041,-0.023,-0.006,104.0,105.0,103.0,13.3,1505.2,324.6,-0.8,1.8,2470.41,13.28,0.047,119.3
2021-08-16T07:04:03,42.805,6.029,0.035,-0.017,0.0,105.0,104.0,103.0,13.4,1505.2,325.8,-0.7,1.8,2470.473,13.28,0.038,115.9
2021-08-16T07:07:03,42.805,6.029,0.027,-0.024,-0.006,105.0,104.0,102.0,13.3,1505.2,328.2,-0.8,1.8,2470.426,13.28,0.036,131.6
2021-08-16T07:10:03,42.805,6.029,0.029,-0.03,-0.006,104.0,105.0,102.0,13.3,1505.2,328.6,-0.8,1.8,2470.419,13.28,0.041,136.0
2021-08-16T07:13:03,42.805,6.029,0.022,-0.028,-0.013,104.0,104.0,102.0,13.4,1505.2,328.4,-0.8,1.8,2470.427,13.28,0.035,141.8
2021-08-16T07:16:03,42.805,6.029,0.034,-0.013,-0.002,104.0,104.0,102.0,13.4,1505.2,328.6,-0.8,1.8,2470.426,13.28,0.036,110.9
2021-08-16T07:19:03,42.805,6.029,0.022,-0.014,0.005,105.0,104.0,103.0,13.3,1505.2,324.9,-0.8,1.8,2470.401,13.28,0.026,122.5
2021-08-16T07:22:03,42.805,6.029,0.062,-0.043,0.005,106.0,103.0,103.0,13.4,1505.2,328.3,-0.7,1.8,2470.416,13.28,0.075,124.7
2021-08-16T07:25:03,42.805,6.029,0.04,-0.023,-0.012,104.0,104.0,103.0,13.3,1505.2,328.9,-0.8,1.8,2470.402,13.28,0.046,119.9
2021-08-16T07:28:03,42.805,6.029,0.046,0.002,0.017,105.0,105.0,102.0,13.3,1505.2,325.5,-0.8,1.8,2470.419,13.28,0.046,87.5
2021-08-16T07:31:03,42.805,6.029,0.04,-0.036,-0.028,103.0,105.0,103.0,13.4,1505.2,330.1,-0.8,1.8,2470.397,13.28,0.053,132.0
2021-08-16T07:34:03,42.805,6.029,0.023,-0.005,0.001,106.0,103.0,102.0,13.3,1505.2,326.8,-0.7,1.8,2470.406,13.28,0.023,102.3
2021-08-16T07:37:03,42.805,6.029,0.045,-0.015,-0.032,105.0,104.0,103.0,13.4,1505.2,327.5,-0.7,1.8,2470.44,13.28,0.047,108.4
2021-08-16T07:40:03,42.805,6.029,0.036,-0.015,-0.033,105.0,104.0,102.0,13.4,1505.2,326.8,-0.8,1.8,2470.414,13.28,0.039,112.6
2021-08-16T07:43:03,42.805,6.029,0.03,-0.015,-0.009,104.0,104.0,103.0,13.3,1505.2,327.7,-0.7,1.8,2470.385,13.28,0.033,116.6
2021-08-16T07:46:03,42.805,6.029,0.039,-0.012,0.015,104.0,104.0,103.0,13.3,1505.2,331.0,-0.7,1.9,2470.404,13.28,0.04,107.1
2021-08-16T07:49:03,42.805,6.029,0.063,-0.028,-0.005,104.0,104.0,103.0,13.4,1505.2,328.9,-0.7,1.9,2470.402,13.28,0.068,114.0
2021-08-16T07:52:03,42.805,6.029,0.024,-0.027,-0.028,105.0,102.0,104.0,13.4,1505.2,325.9,-0.7,1.9,2470.347,13.28,0.036,138.4
2021-08-16T07:55:03,42.805,6.029,0.026,-0.01,0.008,104.0,104.0,102.0,13.3,1505.2,326.7,-0.8,1.8,2470.421,13.28,0.027,111.0
2021-08-16T07:58:03,42.805,6.029,0.036,-0.038,-0.023,104.0,103.0,103.0,13.3,1505.2,330.9,-0.8,1.8,2470.394,13.28,0.052,136.5
2021-08-16T08:04:03,42.805,6.029,0.045,-0.01,0.007,104.0,103.0,103.0,13.4,1505.2,328.7,-0.8,1.8,2470.438,13.28,0.046,102.5
2021-08-16T08:07:03,42.805,6.029,0.033,-0.03,-0.007,105.0,103.0,103.0,13.4,1505.2,329.6,-0.7,1.8,2470.42,13.28,0.044,132.3
2021-08-16T08:10:03,42.805,6.029,0.051,-0.021,-0.008,104.0,104.0,103.0,13.4,1505.2,330.3,-0.8,1.8,2470.427,13.28,0.055,112.4
2021-08-16T08:13:03,42.805,6.029,0.034,-0.014,-0.012,104.0,106.0,103.0,13.4,1505.2,325.7,-0.8,1.8,2470.439,13.28,0.036,112.4
2021-08-16T08:16:03,42.805,6.029,0.045,-0.019,0.001,104.0,103.0,102.0,13.3,1505.2,325.6,-0.8,1.8,2470.434,13.28,0.048,112.9
2021-08-16T08:19:03,42.805,6.029,0.036,-0.022,0.009,105.0,105.0,102.0,13.4,1505.2,329.2,-0.7,1.8,2470.424,13.28,0.042,121.4
2021-08-16T08:22:03,42.805,6.029,0.038,-0.017,-0.024,104.0,105.0,103.0,13.4,1505.2,329.6,-0.8,1.8,2470.401,13.28,0.041,114.1
2021-08-16T08:25:03,42.805,6.029,0.023,-0.027,0.015,103.0,104.0,102.0,13.3,1505.2,326.6,-0.8,1.8,2470.443,13.28,0.035,139.6
2021-08-16T08:28:03,42.805,6.029,0.035,-0.023,-0.015,105.0,105.0,103.0,13.4,1505.2,327.2,-0.7,1.8,2470.472,13.28,0.041,123.3
2021-08-16T08:31:03,42.805,6.029,0.033,-0.016,0.02,104.0,104.0,103.0,13.3,1505.2,325.5,-0.8,1.8,2470.373,13.28,0.036,115.9
2021-08-16T08:34:03,42.805,6.029,0.037,-0.015,0.019,104.0,103.0,103.0,13.4,1505.2,330.8,-0.7,1.8,2470.418,13.28,0.039,112.1
2021-08-16T08:37:03,42.805,6.029,0.023,-0.007,0.032,105.0,103.0,104.0,13.4,1505.2,327.8,-0.7,1.8,2470.407,13.28,0.024,106.9
2021-08-16T08:40:03,42.805,6.029,0.054,-0.004,0.0,104.0,104.0,102.0,13.4,1505.2,326.5,-0.7,1.8,2470.43,13.28,0.054,94.2
2021-08-16T08:43:03,42.805,6.029,0.053,-0.008,-0.028,104.0,105.0,103.0,13.4,1505.2,325.7,-0.8,1.8,2470.416,13.28,0.053,98.6
2021-08-16T08:46:03,42.805,6.029,0.039,-0.033,-0.016,104.0,105.0,103.0,13.4,1505.2,328.9,-0.7,1.8,2470.437,13.28,0.051,130.2
2021-08-16T08:49:03,42.805,6.029,0.027,-0.026,-0.003,104.0,102.0,103.0,13.3,1505.2,328.3,-0.7,1.8,2470.371,13.28,0.037,133.9
2021-08-16T08:52:03,42.805,6.029,0.059,-0.027,0.001,105.0,104.0,103.0,13.3,1505.2,327.6,-0.8,1.9,2470.428,13.28,0.064,114.6
2021-08-16T08:55:03,42.805,6.029,0.026,-0.038,-0.034,104.0,104.0,103.0,13.4,1505.2,329.4,-0.7,1.8,2470.414,13.28,0.046,145.6
2021-08-16T08:58:03,42.805,6.029,0.048,-0.02,-0.013,105.0,105.0,102.0,13.4,1505.2,326.5,-0.8,1.8,2470.438,13.28,0.052,112.6
2021-08-16T09:04:03,42.805,6.029,0.054,-0.023,-0.02,105.0,105.0,102.0,13.4,1505.2,328.3,-0.8,1.8,2470.447,13.28,0.058,113.1
2021-08-16T09:07:03,42.805,6.029,0.044,-0.012,0.042,105.0,103.0,102.0,13.3,1505.2,329.3,-0.7,1.9,2470.436,13.28,0.045,105.3
2021-08-16T09:10:03,42.805,6.029,0.045,-0.014,0.0,103.0,106.0,102.0,13.4,1505.2,329.2,-0.7,1.8,2470.432,13.28,0.047,107.3
2021-08-16T09:13:03,42.805,6.029,0.039,-0.017,0.026,105.0,104.0,102.0,13.4,1505.2,327.5,-0.8,1.8,2470.443,13.28,0.042,113.5
2021-08-16T09:16:03,42.805,6.029,0.045,-0.003,0.002,105.0,104.0,102.0,13.4,1505.2,327.5,-0.7,1.8,2470.443,13.28,0.045,93.8
2021-08-16T09:19:03,42.805,6.029,0.024,-0.007,-0.012,106.0,104.0,102.0,13.3,1505.2,326.9,-0.8,1.8,2470.412,13.28,0.025,106.3
2021-08-16T09:22:03,42.805,6.029,0.044,-0.026,0.022,103.0,104.0,103.0,13.3,1505.2,329.3,-0.7,1.8,2470.46,13.28,0.051,120.6
2021-08-16T09:25:03,42.805,6.029,0.025,-0.003,-0.017,104.0,105.0,102.0,13.4,1505.2,325.6,-0.8,1.9,2470.416,13.28,0.025,96.8
2021-08-16T09:28:03,42.805,6.029,0.042,-0.009,0.012,104.0,104.0,103.0,13.4,1505.2,330.3,-0.7,1.8,2470.44,13.28,0.042,102.1
2021-08-16T09:31:03,42.805,6.029,0.037,-0.013,0.016,105.0,105.0,103.0,13.3,1505.2,327.0,-0.8,1.8,2470.418,13.28,0.039,109.4
2021-08-16T09:34:03,42.805,6.029,0.041,-0.02,-0.006,105.0,105.0,101.0,13.3,1505.2,325.4,-0.7,1.8,2470.475,13.28,0.045,116.0
2021-08-16T09:37:03,42.805,6.029,0.047,-0.005,-0.028,105.0,104.0,103.0,13.4,1505.2,331.3,-0.7,1.8,2470.426,13.28,0.047,96.1
2021-08-16T09:40:03,42.805,6.029,0.026,-0.014,-0.001,104.0,106.0,103.0,13.3,1505.2,329.4,-0.7,1.8,2470.452,13.28,0.029,118.3
2021-08-16T09:43:03,42.805,6.029,0.067,-0.024,0.027,106.0,104.0,102.0,13.4,1505.2,327.1,-0.8,1.8,2470.459,13.28,0.071,109.7
2021-08-16T09:46:03,42.805,6.029,0.05,-0.019,0.011,105.0,104.0,103.0,13.4,1505.2,328.1,-0.7,1.8,2470.438,13.28,0.053,110.8
2021-08-16T09:49:03,42.805,6.029,0.047,-0.03,0.0,104.0,104.0,102.0,13.3,1505.2,329.1,-0.8,1.8,2470.468,13.28,0.055,122.6
2021-08-16T09:52:03,42.805,6.029,0.075,0.004,0.001,106.0,103.0,102.0,13.4,1505.2,329.0,-0.8,1.8,2470.464,13.28,0.075,87.0
2021-08-16T09:55:03,42.805,6.029,0.039,-0.029,-0.009,105.0,104.0,104.0,13.4,1505.2,325.7,-0.7,1.9,2470.475,13.28,0.048,126.6
2021-08-16T09:58:03,42.805,6.029,0.03,-0.007,0.015,105.0,105.0,102.0,13.4,1505.2,327.1,-0.8,1.8,2470.467,13.28,0.03,103.1
2021-08-16T10:04:03,42.805,6.029,0.031,-0.017,0.003,106.0,104.0,103.0,13.4,1505.2,325.5,-0.8,1.8,2470.488,13.28,0.035,118.7
2021-08-16T10:07:03,42.805,6.029,0.064,-0.022,0.023,105.0,104.0,103.0,13.3,1505.2,325.0,-0.8,1.8,2470.475,13.28,0.067,109.0
2021-08-16T10:10:03,42.805,6.029,0.023,-0.007,-0.013,105.0,106.0,102.0,13.4,1505.2,327.2,-0.8,1.8,2470.55,13.28,0.024,106.9
2021-08-16T10:13:03,42.805,6.029,0.048,-0.021,-0.002,105.0,103.0,103.0,13.3,1505.2,329.6,-0.7,1.8,2470.487,13.28,0.052,113.6
2021-08-16T10:16:03,42.805,6.029,0.061,-0.018,0.018,105.0,104.0,103.0,13.3,1505.2,328.3,-0.7,1.8,2470.489,13.28,0.063,106.4